Temp
69 70 66 66 55 51 47 54 57 58 57 59 63 63 62 59 60 52 61 66 68 66 68 69 73 74 75 75 76 76 76 77 76 76 75 76 76 76 75 75 75 75 76 76 76 75 75 74 74
68 76 67 59 49 44 47 54 57 58 61 62 65 61 62 56 61 59 60 67 69 67 67 67 71 73 73 73 73 74 76 75 75 74 74 73 73 73 73 72 72 73 73 74 74 74 73 72 73
72 75 60 54 47 46 49 56 56 58 60 59 58 59 58 60 58 60 62 66 66 64 66 68 71 72 72 72 72 73 72 73 73 72 72 72 72 72 71 71 71 71 72 73 73 72 71 71 71
67 65 60 51 49 54 56 56 59 59 59 60 61 55 58 62 63 62 64 65 63 63 64 68 71 72 72 72 72 72 71 72 71 71 71 71 70 70 70 70 70 70 70 71 71 70 70 70 70
64 58 51 47 51 56 58 63 61 59 58 59 59 56 57 59 61 63 63 64 61 59 61 64 70 71 71 71 71 71 71 71 70 69 69 69 68 68 68 69 69 69 69 69 69 69 69 69 69
58 57 48 45 51 59 60 66 63 60 59 58 57 54 58 60 59 59 61 60 61 58 59 61 66 68 69 69 70 69 69 69 68 68 67 67 67 67 66 67 67 67 67 68 68 67 67 68 68
55 52 48 49 54 58 60 62 60 61 59 59 61 57 52 55 59 59 60 59 59 59 57 56 58 62 65 67 67 68 67 67 66 66 66 65 65 64 63 63 65 66 66 67 67 67 67 68 68
59 55 49 49 53 56 61 62 62 61 62 61 65 58 56 56 59 59 58 58 56 57 56 54 54 55 54 56 63 64 65 64 64 64 63 63 64 62 61 60 64 65 66 67 67 66 66 65 65
62 50 47 53 55 56 60 59 60 61 58 60 65 60 59 59 58 56 54 55 54 57 56 54 53 53 52 53 57 60 62 62 62 61 61 58 52 53 55 60 63 63 64 64 65 64 63 62 60
56 47 53 60 58 58 60 60 61 57 57 58 59 56 58 58 57 55 53 54 53 53 54 55 54 53 52 59 52 51 54 51 51 52 52 51 51 52 54 56 59 60 60 61 61 61 59 56 51
57 52 59 62 62 61 61 58 62 58 55 59 60 60 56 54 55 55 55 56 57 55 54 54 55 53 52 53 49 47 48 47 48 49 50 50 50 48 47 46 47 47 51 47 49 48 49 49 49
55 62 63 63 65 61 58 61 60 60 66 66 64 63 57 53 55 55 55 55 54 53 57 54 54 54 51 50 50 48 48 46 46 47 49 47 45 45 45 44 44 44 44 44 44 44 46 47 49
58 59 63 63 62 62 61 59 57 58 62 64 65 63 57 57 56 57 57 56 56 55 55 55 53 53 53 50 49 48 47 46 46 46 48 46 45 44 44 44 43 43 43 43 43 43 44 45 46
57 59 58 60 62 61 59 55 57 60 62 62 64 62 57 58 58 55 53 55 55 58 55 55 55 54 52 50 48 48 47 47 45 44 45 46 44 43 43 43 43 42 42 42 42 42 42 43 44
58 55 56 62 59 58 58 54 54 65 60 61 60 61 60 58 57 58 59 58 58 58 56 54 54 53 52 50 49 48 47 47 44 44 45 45 45 44 42 41 41 41 41 42 42 42 42 41 43
51 48 45 57 56 57 59 50 59 61 57 58 61 58 58 58 60 61 61 59 58 55 54 55 58 54 51 50 48 49 46 44 43 43 43 45 45 44 41 40 40 40 40 40 40 40 40 39 39
45 42 44 52 58 54 52 49 57 60 57 58 56 56 60 63 58 63 60 59 58 58 55 53 54 51 50 47 47 45 45 43 43 42 41 43 44 43 41 40 39 40 39 39 40 38 38 37 37
41 41 47 47 52 50 47 51 58 57 55 56 56 56 56 61 64 63 60 60 60 58 55 54 53 50 49 48 44 43 42 41 41 40 41 42 42 42 40 39 39 39 38 38 38 37 37 37 37
49 46 45 54 58 53 54 53 58 60 55 54 56 60 63 61 64 60 60 60 57 54 52 51 50 50 50 47 44 42 42 39 39 40 41 41 41 41 39 38 39 38 37 37 39 37 37 35 36
49 47 47 55 56 51 51 52 56 53 57 60 60 61 63 59 58 58 54 53 54 52 52 51 51 50 51 49 48 42 42 38 39 40 40 41 40 40 39 38 37 37 36 37 37 36 34 34 35
51 47 50 48 52 49 46 43 48 53 54 59 61 62 63 58 56 53 49 51 52 51 49 50 50 50 50 48 45 40 39 38 37 37 39 39 39 38 39 37 36 36 35 34 35 34 34 32 33
49 52 52 47 41 41 43 39 46 49 51 53 57 61 57 53 55 52 51 47 50 51 51 51 50 49 49 46 46 42 44 40 42 43 40 38 38 37 37 37 36 35 34 34 34 36 33 33 31
51 49 46 42 39 36 39 36 41 49 48 54 60 63 61 54 55 52 52 54 51 50 50 50 48 48 48 46 47 43 42 43 38 38 37 36 35 36 36 36 35 34 33 34 34 34 33 32 31
48 43 42 39 36 32 38 40 43 44 50 52 59 62 63 55 53 53 52 49 48 48 49 48 47 47 47 46 45 44 42 37 37 37 36 36 35 34 34 35 33 33 33 33 33 33 32 31 31
43 40 28 27 23 32 43 35 49 50 53 56 59 61 62 53 50 48 47 48 47 45 47 47 46 45 46 45 43 44 42 41 39 38 38 35 34 31 32 32 32 31 31 32 32 32 31 31 30
40 42 30 23 29 39 30 32 45 54 58 57 60 63 56 50 50 49 48 48 46 46 45 47 44 45 44 44 42 42 40 42 40 39 38 37 36 35 33 31 31 31 31 30 31 30 30 30 30
41 37 47 32 19 25 41 44 51 53 54 54 56 49 52 49 47 48 46 47 45 45 45 46 45 46 44 43 42 41 40 41 40 38 37 36 35 35 32 31 30 29 29 30 29 28 28 29 30
43 44 33 32 24 21 38 34 45 51 57 58 52 50 49 48 48 47 46 46 46 47 46 45 46 45 44 42 42 41 40 41 40 36 35 33 33 33 31 29 29 28 28 28 28 27 28 27 28
40 38 40 40 34 34 32 40 50 46 53 56 51 49 49 50 48 48 47 48 47 46 44 44 43 42 41 40 40 39 38 38 36 36 35 33 33 31 30 29 28 28 27 27 26 26 25 23 23
45 42 43 37 33 32 36 40 57 49 49 50 51 53 49 51 52 48 48 46 43 45 43 43 43 42 42 40 37 38 35 35 35 35 32 31 31 30 29 28 27 26 26 25 24 22 22 21 22
MSLP
1014.74 1014.46 1014.77 1014.91 1016.40 1016.67 1015.80 1014.30 1013.34 1013.32 1013.19 1013.31 1013.32 1013.83 1014.37 1015.34 1016.25 1017.99 1018.13 1018.05 1018.19 1018.59 1018.74 1018.72 1018.59 1018.60 1018.49 1018.43 1018.39 1018.45 1018.53 1018.61 1018.68 1018.84 1019.27 1019.39 1019.50 1019.57 1019.62 1019.74 1019.83 1019.85 1019.64 1019.44 1019.52 1019.63 1019.55 1019.56 1019.30
1014.70 1014.43 1014.92 1015.61 1016.53 1016.55 1015.26 1014.02 1013.75 1013.53 1013.42 1013.36 1013.52 1014.01 1014.51 1015.69 1016.37 1017.53 1017.99 1017.96 1017.98 1018.51 1018.74 1018.76 1018.58 1018.60 1018.71 1018.80 1018.77 1018.75 1018.77 1018.99 1019.00 1019.18 1019.42 1019.69 1019.91 1019.97 1020.15 1020.20 1020.23 1020.25 1020.10 1020.01 1019.96 1019.94 1019.94 1019.87 1019.56
1014.65 1014.56 1015.71 1016.12 1016.38 1015.87 1014.66 1013.76 1013.76 1013.73 1013.53 1013.59 1014.07 1014.26 1014.78 1015.56 1016.36 1016.75 1017.00 1017.40 1017.75 1018.32 1018.56 1018.65 1018.70 1018.75 1018.85 1018.93 1019.08 1019.11 1019.22 1019.39 1019.43 1019.65 1019.84 1019.96 1020.02 1020.13 1020.25 1020.37 1020.50 1020.43 1020.27 1020.20 1020.15 1020.30 1020.32 1020.14 1020.05
1014.84 1015.23 1016.14 1016.31 1015.91 1014.64 1013.76 1013.38 1013.35 1013.75 1013.80 1013.81 1014.12 1014.75 1015.01 1015.18 1015.64 1016.29 1016.91 1017.20 1017.80 1018.21 1018.40 1018.53 1018.55 1018.68 1018.88 1019.02 1019.14 1019.26 1019.43 1019.48 1019.87 1020.09 1020.14 1020.18 1020.35 1020.42 1020.54 1020.59 1020.59 1020.51 1020.42 1020.34 1020.35 1020.46 1020.40 1020.29 1020.21
1015.27 1015.97 1016.41 1016.13 1015.14 1013.84 1013.01 1012.78 1013.11 1013.68 1013.91 1014.11 1014.26 1014.79 1015.33 1015.59 1015.75 1016.17 1016.70 1017.24 1017.81 1018.46 1018.58 1018.58 1018.55 1018.69 1018.91 1019.15 1019.31 1019.41 1019.59 1019.70 1020.06 1020.39 1020.47 1020.62 1020.74 1020.78 1020.83 1020.78 1020.77 1020.75 1020.75 1020.80 1020.83 1020.83 1020.68 1020.60 1020.51
1015.88 1016.21 1016.49 1015.91 1014.51 1013.12 1012.44 1012.11 1012.71 1013.33 1013.81 1014.25 1014.65 1015.10 1015.44 1015.63 1016.08 1016.46 1016.65 1017.15 1017.53 1018.15 1018.48 1018.60 1018.61 1018.68 1018.86 1019.10 1019.31 1019.51 1019.69 1019.91 1020.22 1020.42 1020.71 1020.88 1020.92 1021.03 1021.15 1021.14 1021.09 1021.13 1021.18 1021.11 1021.03 1020.98 1020.87 1020.75 1020.57
1015.83 1016.31 1016.00 1015.05 1013.95 1012.91 1012.24 1012.01 1012.37 1012.92 1013.54 1013.92 1013.90 1015.09 1015.66 1016.24 1016.24 1016.39 1016.60 1017.04 1017.48 1017.91 1018.34 1018.63 1018.75 1018.82 1019.03 1019.18 1019.24 1019.35 1019.60 1019.95 1020.18 1020.43 1020.68 1020.81 1021.01 1021.26 1021.40 1021.39 1021.25 1021.26 1021.22 1021.05 1020.96 1020.99 1020.90 1020.75 1020.63
1015.41 1016.03 1015.59 1014.35 1013.37 1012.50 1012.01 1011.96 1012.08 1012.68 1013.13 1013.20 1013.42 1014.16 1014.88 1014.98 1015.84 1016.33 1016.80 1017.09 1017.45 1017.71 1018.05 1018.50 1018.74 1018.98 1019.28 1019.33 1019.29 1019.41 1019.70 1019.97 1020.23 1020.47 1020.69 1020.77 1020.88 1021.17 1021.35 1021.45 1021.26 1021.23 1021.16 1020.92 1021.02 1020.81 1020.90 1021.03 1020.90
1015.13 1015.83 1015.35 1014.12 1012.94 1012.25 1011.94 1012.07 1012.20 1012.40 1012.80 1013.05 1013.23 1013.57 1013.83 1014.39 1015.68 1016.50 1016.97 1017.25 1017.45 1017.48 1017.65 1018.04 1018.43 1018.83 1019.18 1019.32 1019.36 1019.54 1019.87 1020.18 1020.42 1020.55 1020.74 1020.99 1021.23 1021.44 1021.56 1021.43 1021.43 1021.48 1021.36 1021.29 1021.16 1021.10 1021.28 1021.19 1021.13
1015.32 1015.70 1014.54 1013.10 1012.56 1012.17 1011.99 1012.08 1012.26 1012.68 1012.76 1012.94 1013.22 1013.65 1014.12 1014.73 1015.50 1016.08 1016.42 1016.60 1016.87 1017.06 1017.20 1017.48 1017.83 1018.28 1018.72 1018.83 1019.28 1019.61 1019.88 1020.17 1020.44 1020.67 1020.82 1021.00 1021.19 1021.34 1021.46 1021.58 1021.65 1021.71 1021.67 1021.54 1021.58 1021.58 1021.64 1021.47 1021.41
1014.75 1014.68 1013.67 1012.78 1012.30 1012.10 1012.00 1012.13 1012.13 1012.50 1012.60 1012.35 1012.48 1012.97 1013.99 1014.58 1015.03 1015.29 1015.56 1015.63 1015.41 1016.14 1016.67 1016.89 1017.23 1017.68 1018.10 1018.48 1019.19 1019.61 1019.86 1020.18 1020.35 1020.41 1020.61 1020.77 1021.00 1021.28 1021.64 1021.84 1021.92 1021.98 1021.99 1021.94 1021.88 1021.82 1021.77 1021.64 1021.60
1014.19 1013.56 1013.37 1012.82 1012.22 1012.10 1012.25 1012.21 1012.03 1012.04 1010.86 1011.12 1011.28 1011.88 1013.26 1013.90 1014.18 1014.20 1014.50 1014.67 1015.06 1015.50 1015.75 1016.25 1016.71 1017.23 1017.70 1018.22 1018.74 1019.26 1019.66 1020.02 1020.22 1020.24 1020.34 1020.66 1021.06 1021.42 1021.82 1022.14 1022.14 1022.10 1022.06 1021.95 1021.86 1021.79 1021.78 1021.65 1021.46
1013.63 1013.35 1013.05 1012.72 1012.56 1012.23 1012.11 1012.31 1012.64 1011.36 1010.87 1011.05 1011.18 1011.70 1012.21 1012.91 1013.02 1013.16 1013.26 1013.85 1014.36 1014.73 1015.06 1015.50 1016.07 1016.60 1017.11 1017.75 1018.22 1018.68 1019.13 1019.53 1019.83 1019.98 1020.12 1020.38 1020.90 1021.41 1021.70 1021.96 1022.05 1022.11 1022.04 1021.98 1021.98 1022.09 1021.95 1021.83 1021.62
1013.43 1013.32 1012.99 1012.54 1012.19 1012.21 1012.46 1012.34 1012.68 1009.85 1010.04 1010.54 1010.79 1010.76 1011.10 1011.42 1011.57 1012.38 1012.84 1012.82 1013.24 1013.65 1014.15 1014.81 1015.48 1015.98 1016.65 1017.31 1017.78 1018.19 1018.62 1018.99 1019.45 1019.74 1019.99 1020.26 1020.77 1021.19 1021.59 1021.96 1022.13 1022.27 1022.13 1022.08 1022.14 1022.17 1022.17 1022.18 1022.18
1013.43 1013.62 1012.94 1011.69 1011.32 1012.12 1012.33 1012.33 1011.54 1009.17 1010.09 1010.20 1010.14 1009.97 1010.10 1010.23 1010.77 1010.54 1010.43 1011.33 1011.97 1012.61 1013.37 1014.02 1014.81 1015.58 1016.21 1016.79 1017.31 1017.83 1018.25 1018.72 1019.27 1019.67 1019.99 1020.26 1020.56 1020.96 1021.41 1021.75 1022.13 1022.29 1022.22 1022.13 1022.19 1022.24 1022.22 1022.27 1021.96
1014.01 1014.06 1013.37 1011.06 1011.36 1011.66 1011.95 1011.04 1009.07 1009.18 1009.91 1009.77 1009.40 1009.40 1009.47 1009.07 1008.93 1008.90 1009.30 1009.96 1010.80 1011.70 1012.43 1013.35 1014.07 1014.93 1015.77 1016.44 1017.08 1017.63 1018.11 1018.63 1019.07 1019.54 1019.89 1020.17 1020.47 1020.78 1021.22 1021.55 1021.81 1021.91 1021.96 1022.01 1022.22 1022.31 1022.45 1022.50 1022.53
1014.45 1014.00 1013.28 1011.65 1010.93 1011.60 1012.12 1010.79 1008.99 1008.76 1009.24 1009.08 1008.79 1008.75 1008.55 1008.14 1007.91 1007.73 1008.19 1008.62 1009.36 1010.19 1011.25 1012.26 1013.20 1014.21 1015.29 1016.28 1016.96 1017.49 1017.99 1018.46 1018.89 1019.26 1019.67 1019.99 1020.27 1020.63 1021.10 1021.37 1021.61 1021.83 1022.07 1022.27 1022.38 1022.49 1022.69 1022.77 1022.55
1013.83 1013.90 1012.80 1012.01 1011.44 1011.54 1011.63 1010.43 1008.86 1008.64 1008.97 1008.71 1008.27 1007.87 1007.52 1007.17 1006.20 1006.31 1007.03 1007.49 1008.24 1009.23 1010.25 1011.49 1012.64 1013.65 1014.62 1015.77 1016.83 1017.64 1018.30 1018.69 1018.92 1019.25 1019.50 1019.70 1020.03 1020.40 1020.74 1021.03 1021.34 1021.68 1022.03 1022.23 1022.21 1022.44 1022.66 1022.77 1022.52
1013.02 1012.85 1012.54 1011.08 1010.79 1011.11 1010.48 1009.87 1008.73 1008.21 1008.37 1008.21 1007.61 1007.02 1006.14 1005.57 1004.97 1005.43 1005.87 1006.51 1007.57 1008.79 1009.87 1010.91 1012.08 1013.17 1014.11 1015.27 1016.43 1017.51 1017.97 1018.40 1018.76 1018.88 1019.08 1019.46 1019.95 1020.34 1020.69 1021.01 1021.31 1021.63 1021.85 1021.86 1022.01 1022.27 1022.56 1022.64 1022.47
1012.77 1012.42 1011.77 1010.55 1010.00 1010.47 1009.88 1008.91 1008.21 1007.96 1007.04 1006.60 1006.43 1005.77 1004.72 1004.93 1004.85 1004.86 1005.35 1006.28 1006.98 1008.02 1009.29 1010.51 1011.54 1012.58 1013.47 1014.39 1015.29 1016.22 1017.06 1018.01 1018.37 1018.71 1019.07 1019.33 1019.74 1020.00 1020.39 1020.73 1021.14 1021.38 1021.54 1021.49 1021.82 1022.18 1022.54 1022.74 1022.69
1011.68 1011.95 1011.06 1010.63 1010.36 1009.77 1009.38 1008.04 1007.60 1006.62 1005.96 1005.41 1004.79 1003.98 1003.71 1004.08 1004.44 1004.75 1005.43 1005.78 1006.62 1007.66 1008.56 1009.57 1010.67 1011.70 1012.59 1013.54 1014.86 1016.03 1017.19 1017.93 1018.44 1018.47 1018.69 1018.83 1019.17 1019.62 1019.89 1020.37 1020.83 1021.22 1021.13 1021.17 1021.60 1021.97 1022.38 1022.95 1023.16
1010.24 1010.70 1010.71 1011.01 1011.37 1010.58 1009.80 1006.32 1006.19 1005.81 1005.35 1004.58 1003.78 1002.61 1002.67 1003.17 1003.59 1003.91 1004.88 1005.73 1005.95 1006.82 1008.03 1008.98 1009.94 1010.89 1011.98 1013.01 1014.04 1014.76 1015.17 1016.05 1016.08 1016.52 1017.59 1018.43 1019.03 1019.41 1019.69 1020.10 1020.55 1020.98 1020.89 1020.75 1021.36 1021.86 1022.53 1022.92 1023.41
1009.55 1010.21 1010.78 1011.20 1011.53 1011.11 1009.91 1009.61 1004.97 1004.65 1004.52 1003.64 1002.69 1001.80 1001.50 1001.97 1002.53 1003.40 1004.15 1004.54 1005.54 1006.53 1007.39 1008.45 1009.55 1010.52 1011.41 1012.26 1012.95 1013.90 1014.68 1015.27 1015.75 1016.74 1017.45 1018.14 1018.83 1019.18 1019.50 1019.69 1020.04 1020.52 1020.73 1020.63 1021.33 1021.96 1022.53 1022.83 1023.12
1010.76 1011.06 1011.22 1011.64 1012.14 1010.60 1010.22 1009.13 1002.47 1003.84 1002.98 1002.32 1001.51 1001.02 1000.76 1001.13 1002.11 1002.99 1003.84 1004.73 1006.05 1006.78 1007.46 1008.30 1009.16 1009.86 1010.42 1011.38 1012.24 1012.98 1013.71 1014.53 1015.39 1016.20 1016.99 1017.50 1018.10 1018.58 1018.96 1019.27 1019.87 1020.19 1020.54 1020.38 1021.20 1021.86 1022.37 1022.78 1023.04
1011.42 1011.81 1012.54 1012.59 1012.73 1009.25 1007.85 1007.27 1002.62 1002.65 1001.83 1001.04 1000.61 1000.11 999.81 1000.55 1001.99 1002.83 1003.90 1005.05 1005.80 1006.51 1007.09 1007.80 1008.55 1009.33 1010.10 1010.68 1011.29 1011.75 1012.64 1013.54 1014.09 1014.55 1015.52 1016.58 1017.34 1017.87 1018.16 1018.81 1019.49 1019.94 1020.26 1020.25 1020.93 1021.64 1022.11 1022.51 1022.89
1010.45 1011.36 1011.99 1011.53 1010.82 1008.51 1007.53 1004.36 1001.81 1000.94 1000.15 999.62 999.14 998.88 999.45 1000.62 1001.68 1002.46 1003.24 1004.36 1005.25 1006.09 1006.74 1007.29 1008.09 1008.84 1009.36 1009.94 1010.56 1011.21 1011.86 1012.52 1013.18 1013.69 1014.20 1015.04 1015.74 1016.42 1017.23 1018.01 1018.74 1019.35 1019.80 1019.90 1020.65 1021.31 1021.87 1022.43 1022.80
1009.50 1010.55 1009.62 1010.44 1009.62 1009.13 1005.05 1002.62 1000.66 1000.15 999.86 999.47 998.89 999.23 999.94 1000.35 1001.28 1002.34 1003.13 1003.82 1004.57 1005.31 1005.76 1006.07 1006.86 1007.52 1008.19 1008.74 1009.84 1010.63 1011.35 1011.66 1012.09 1012.89 1013.70 1014.34 1014.85 1015.76 1016.66 1017.48 1018.33 1019.07 1019.60 1019.81 1020.61 1021.29 1021.70 1022.21 1022.64
1008.19 1008.60 1009.71 1009.92 1009.83 1008.00 1004.27 1002.62 1000.57 1000.78 999.82 998.95 998.94 999.16 999.87 1000.58 1001.39 1002.21 1002.85 1003.35 1003.86 1004.45 1005.18 1005.98 1006.42 1006.77 1007.39 1008.01 1008.60 1009.26 1009.96 1010.81 1011.75 1012.61 1013.00 1013.92 1014.91 1015.47 1016.40 1017.39 1018.17 1018.81 1019.29 1019.37 1020.43 1021.15 1021.60 1022.05 1022.37
1008.88 1008.49 1008.43 1008.55 1007.87 1006.28 1004.91 1001.52 999.91 1000.25 999.80 999.51 998.99 999.20 999.92 1000.59 1001.24 1001.64 1001.95 1002.43 1003.10 1003.76 1004.59 1005.23 1005.69 1006.30 1006.91 1007.55 1007.93 1008.56 1009.17 1009.85 1010.85 1011.86 1012.68 1013.27 1014.25 1015.20 1016.14 1016.93 1017.78 1018.58 1019.03 1019.30 1020.18 1020.93 1021.66 1022.11 1022.43
1007.31 1007.59 1007.97 1007.74 1006.88 1006.03 1004.48 1002.12 1000.74 1000.37 1000.09 1000.30 998.92 999.07 999.24 999.86 1000.49 1000.95 1001.30 1001.87 1002.53 1002.98 1003.62 1003.99 1004.81 1005.39 1005.48 1006.53 1007.56 1008.23 1009.08 1009.82 1010.53 1011.28 1012.43 1013.09 1013.97 1014.98 1015.67 1016.47 1017.09 1017.90 1018.21 1018.91 1019.63 1020.71 1021.58 1022.17 1022.23
Wind_Speed
5 6 2 5 5 5 4 5 2 2 3 2 2 4 6 2 2 4 4 8 9 9 6 5 9 9 8 8 7 8 9 10 12 13 13 12 10 10 11 11 10 10 12 13 15 14 14 14 13
4 3 4 2 4 2 6 2 4 1 4 3 6 3 6 2 4 7 7 8 9 9 6 5 8 10 10 8 8 7 7 6 8 10 11 10 7 9 10 11 11 11 11 11 11 11 11 12 12
3 1 4 3 2 4 4 4 7 3 3 3 3 2 2 5 2 11 5 11 10 9 7 6 10 12 12 11 10 11 10 8 10 11 10 10 10 10 11 11 11 11 11 11 11 11 11 11 11
2 5 5 3 8 8 4 4 6 7 2 2 4 2 1 2 9 10 9 10 9 8 7 8 12 13 13 13 12 13 12 13 13 12 11 11 11 11 10 10 11 11 12 11 12 11 12 12 11
4 3 1 2 7 5 2 8 8 5 5 4 3 3 3 1 7 13 10 9 10 8 6 6 12 13 13 13 13 13 13 13 13 12 12 11 10 10 11 11 11 12 12 11 11 12 12 12 12
4 3 2 3 5 3 3 7 9 6 4 3 2 1 4 6 9 9 9 9 9 9 7 6 8 11 13 14 14 14 14 13 12 12 11 11 11 11 11 10 11 11 10 10 12 12 13 13 13
3 3 5 5 7 5 3 3 5 7 7 7 6 6 0 5 7 8 9 8 9 9 8 6 6 7 10 11 13 14 14 13 13 13 13 12 11 11 11 10 11 12 11 12 13 13 14 15 15
3 3 4 4 4 5 5 4 3 6 6 1 6 7 6 8 11 9 7 8 8 8 9 8 7 7 6 6 10 12 13 12 12 12 11 9 10 10 10 9 11 12 11 13 14 15 16 16 16
3 3 4 5 3 2 3 4 1 3 2 3 6 4 3 9 11 8 6 6 6 7 9 9 9 8 7 6 7 11 13 13 12 10 8 6 4 5 5 7 9 11 11 12 13 14 15 15 14
4 3 7 4 3 4 3 5 7 2 4 5 4 1 6 10 13 13 10 13 9 10 9 11 10 10 9 7 7 6 6 5 5 5 5 5 5 4 5 6 9 10 10 12 13 13 13 10 4
4 6 5 5 3 2 3 3 5 7 8 9 12 9 11 10 13 15 15 13 18 10 7 11 11 9 10 7 5 3 3 4 4 6 5 5 4 4 3 3 3 3 7 3 5 5 4 6 4
5 8 8 8 4 2 3 4 5 9 17 8 13 7 14 12 17 18 17 17 13 12 15 11 10 10 8 6 7 6 5 4 4 5 6 5 3 4 4 2 3 3 2 4 4 3 4 5 6
6 5 7 8 8 7 3 9 8 13 11 11 11 7 16 15 17 14 14 11 12 14 13 14 12 11 9 9 6 6 5 5 5 5 5 5 5 5 4 3 3 3 3 4 5 5 5 6 6
3 5 7 8 12 7 7 5 5 12 8 14 12 13 12 19 21 12 10 15 16 15 15 14 14 11 10 8 7 6 5 6 5 5 5 6 5 5 4 3 4 3 3 3 4 4 4 4 5
3 9 9 16 11 8 6 10 16 26 6 9 13 13 12 17 11 21 21 19 17 13 13 16 15 12 12 10 8 7 5 6 5 5 6 7 6 6 6 4 4 2 3 4 4 4 4 4 5
3 2 5 7 7 4 10 19 13 12 8 16 18 12 10 14 21 20 16 16 15 12 16 16 15 15 12 10 6 6 5 5 5 5 5 7 6 6 5 4 4 3 3 3 3 3 3 4 4
4 6 8 13 9 6 6 13 11 8 9 15 11 11 15 17 12 17 15 18 19 18 17 18 16 15 13 8 6 6 7 5 5 5 5 7 7 6 5 4 4 4 3 2 2 2 3 3 4
8 6 7 10 4 3 6 20 17 11 6 11 10 10 13 17 23 14 16 17 18 17 18 18 14 15 14 8 6 4 4 4 5 5 5 7 5 6 6 4 5 4 3 3 2 2 1 1 4
5 6 9 19 10 10 18 19 22 19 10 12 16 18 20 17 15 9 15 17 15 14 16 18 17 16 13 9 8 6 7 5 4 5 7 7 6 6 6 4 5 5 4 4 3 1 1 2 3
10 14 15 15 12 11 14 21 17 9 14 16 17 20 24 11 9 8 10 12 17 18 17 17 17 17 14 11 9 5 6 2 3 3 5 7 7 7 6 6 5 5 4 5 4 3 2 2 4
20 15 18 19 10 7 8 11 13 11 10 14 18 21 21 12 12 8 10 14 15 18 19 19 19 19 16 14 9 5 5 4 3 5 6 6 8 8 7 7 5 5 4 5 4 4 4 1 2
22 10 14 8 3 14 5 18 9 7 12 10 16 22 11 11 10 8 11 11 17 17 17 18 18 18 14 15 14 12 12 10 8 10 7 6 8 7 7 7 6 6 3 6 4 4 3 3 1
20 4 5 2 5 6 5 8 3 8 8 13 16 21 17 12 13 12 16 19 14 16 17 16 17 17 15 17 16 12 11 8 4 5 9 8 6 7 7 7 7 6 4 6 6 4 3 3 3
2 1 1 2 3 14 9 9 6 7 10 7 11 15 17 10 9 10 7 10 10 11 13 14 16 17 16 17 16 18 16 10 9 10 10 9 8 6 7 7 6 6 5 6 5 4 4 2 1
3 5 5 5 2 16 12 11 18 6 8 12 14 15 16 8 9 10 12 13 13 15 15 14 16 16 15 18 18 20 16 15 14 14 12 13 9 5 9 7 7 5 5 6 6 5 3 1 1
11 11 9 8 9 19 3 11 9 11 13 12 16 17 5 8 8 11 13 13 13 15 15 16 15 15 16 18 17 16 15 11 10 13 11 11 11 9 9 8 8 8 7 6 6 4 3 2 2
5 7 11 2 3 2 10 13 10 8 11 12 16 3 9 10 10 11 9 12 13 14 17 19 17 17 17 18 15 15 13 15 14 13 10 9 9 8 10 10 9 7 7 7 6 4 4 3 3
6 1 1 2 3 8 16 7 15 14 21 16 11 10 8 6 8 8 10 12 12 13 14 14 15 18 14 15 15 14 15 16 12 11 13 11 9 10 11 10 9 8 7 7 6 4 3 4 3
1 4 5 2 5 13 14 18 6 2 6 10 8 7 8 9 10 10 10 12 12 10 13 14 14 15 14 14 15 15 14 14 12 13 12 12 11 11 11 11 10 9 7 7 6 4 3 3 1
6 6 7 10 11 4 7 17 9 5 4 10 5 5 4 5 8 8 11 9 10 13 13 17 15 17 18 13 13 14 11 11 12 12 10 11 12 10 12 11 10 9 9 7 6 5 3 3 4
Wind_Direction
304 282 298 39 44 68 265 262 83 66 54 37 45 71 126 63 156 200 215 121 122 122 114 103 119 116 113 90 81 109 111 89 94 90 66 57 57 52 58 53 50 38 27 23 30 32 25 17 18
307 307 36 71 92 58 272 217 114 122 167 108 73 5 46 123 125 140 125 151 130 126 122 111 114 119 119 106 90 85 99 105 81 81 76 64 72 69 64 63 55 46 41 39 37 30 25 17 8
293 295 79 100 164 193 226 193 151 149 120 100 89 78 163 180 130 160 188 145 125 125 122 128 128 124 118 115 114 119 109 115 94 84 93 89 75 71 65 58 52 48 41 36 35 26 20 17 12
36 11 17 90 248 264 199 158 145 134 22 47 147 171 54 228 165 171 152 139 122 122 122 131 134 129 126 125 124 119 116 110 108 101 97 91 86 80 67 55 45 41 36 32 29 19 15 13 8
27 64 50 254 267 255 228 149 149 145 165 210 146 240 245 20 114 137 146 143 133 131 123 132 138 136 132 128 126 124 123 120 116 113 104 99 90 79 67 60 52 44 37 33 26 21 16 12 2
16 98 31 254 254 265 202 157 135 154 177 177 163 132 228 141 135 166 149 153 139 138 135 122 129 137 140 143 141 136 131 127 124 118 113 107 96 87 76 61 54 45 37 32 26 21 15 11 9
123 92 228 249 257 302 211 149 159 181 162 220 170 165 272 189 178 163 160 153 139 141 136 137 123 127 144 149 143 138 134 131 131 130 121 112 100 86 68 56 52 41 36 33 28 25 23 21 17
110 95 286 255 256 254 171 132 141 162 244 81 165 226 230 207 171 154 158 157 153 155 155 159 155 146 144 146 140 140 138 139 137 133 127 116 92 90 68 55 48 40 39 35 29 27 29 19 17
62 48 261 262 300 276 195 155 295 143 175 207 206 190 215 129 137 142 158 177 167 179 172 165 167 163 158 146 141 138 145 143 143 142 157 126 111 110 103 78 62 58 48 41 33 30 22 15 11
119 152 236 220 289 283 205 182 183 177 241 242 230 27 128 142 161 172 186 195 194 192 189 174 174 167 162 155 149 152 156 158 162 159 138 133 123 121 107 67 66 66 54 44 35 30 23 15 358
202 212 222 280 284 28 285 250 201 184 237 209 213 200 179 170 182 188 201 201 203 191 183 185 177 170 167 156 161 163 160 164 158 151 151 138 111 93 85 73 53 50 57 53 44 26 15 10 360
226 244 246 273 249 213 257 294 263 204 241 207 226 196 177 188 194 199 203 205 193 190 193 179 177 174 174 154 163 167 160 163 161 163 148 130 115 108 110 112 104 91 58 49 36 27 4 9 356
233 262 264 270 282 237 227 247 246 261 265 252 253 196 187 203 212 216 212 208 200 199 191 188 177 176 173 161 164 163 171 162 167 156 143 137 132 130 125 116 90 70 47 45 32 19 9 1 353
263 261 267 258 260 234 206 256 158 262 233 246 239 244 207 203 209 205 201 208 200 199 193 180 184 175 165 166 167 169 166 163 158 148 145 133 136 135 127 117 90 67 51 44 38 22 16 5 344
290 317 310 267 249 224 125 285 224 248 249 256 248 240 223 218 202 209 209 207 198 200 179 182 177 169 171 171 171 169 170 154 144 147 143 137 137 135 135 122 101 84 61 53 37 18 14 1 351
259 209 288 278 126 211 124 263 246 247 194 240 240 244 236 231 217 221 208 200 188 176 178 177 177 173 168 170 162 162 158 148 146 143 143 148 142 138 131 128 126 119 87 79 55 31 0 0 347
267 239 218 294 200 141 166 256 274 259 209 247 247 237 237 245 233 226 205 194 185 181 173 173 173 168 162 156 152 151 153 151 153 147 155 155 145 141 137 138 130 124 111 90 73 43 48 350 325
216 225 245 240 201 162 200 248 261 270 270 257 269 253 243 240 244 221 203 196 184 179 173 167 163 159 156 151 137 131 137 147 150 159 162 154 151 150 146 142 145 145 139 122 87 72 336 262 285
242 253 236 268 266 204 238 238 256 256 263 251 257 261 258 245 249 224 202 193 171 164 160 164 160 167 160 163 158 159 175 170 165 171 155 155 154 159 155 153 157 162 153 145 128 146 12 352 329
244 256 262 272 264 194 248 254 251 241 246 243 242 253 257 252 251 242 183 170 172 164 164 164 167 167 171 170 170 157 155 154 150 147 160 165 165 169 165 162 170 166 151 130 124 113 51 17 32
250 248 258 254 290 237 284 266 252 247 261 257 256 251 258 237 228 211 176 176 162 166 166 167 170 173 173 168 150 106 94 84 145 187 182 185 170 172 164 168 162 179 174 145 143 129 118 111 358
259 216 256 266 261 271 132 289 220 228 243 237 248 259 246 221 224 191 178 171 173 173 168 169 170 174 173 163 170 171 186 180 202 186 177 168 171 171 164 168 173 188 182 124 130 131 129 126 250
260 174 232 253 246 318 175 284 184 190 243 248 247 255 262 218 209 187 189 186 176 165 171 170 170 175 172 177 183 181 189 188 148 158 161 168 168 171 175 173 175 175 170 133 138 133 142 158 157
123 206 211 38 80 263 183 208 147 184 214 239 249 256 258 221 200 197 174 144 167 166 167 169 171 180 178 180 183 189 187 170 161 169 174 178 177 177 179 175 165 166 167 139 144 141 133 136 165
177 86 300 325 14 255 185 223 253 266 235 212 232 244 242 183 178 164 161 172 171 175 176 176 179 185 182 185 189 192 188 185 182 177 180 174 174 183 188 164 166 164 162 134 132 134 144 182 182
191 181 174 208 252 276 73 253 266 232 233 230 222 228 216 169 181 178 179 179 180 184 180 183 184 187 189 191 193 192 187 190 192 187 178 184 183 178 164 161 156 155 154 136 131 131 153 191 225
171 184 221 348 76 15 257 279 285 249 276 268 243 228 211 191 183 188 178 183 183 186 193 187 187 195 193 193 191 195 192 192 193 187 179 180 168 161 158 154 149 147 144 133 134 152 173 207 222
172 175 94 277 214 247 273 286 276 292 284 289 250 206 210 191 180 190 195 192 192 192 192 196 201 203 197 194 193 193 194 198 191 177 181 172 163 150 151 149 147 149 153 134 141 160 177 205 203
273 257 228 232 182 240 258 270 137 210 314 292 246 203 192 205 209 205 204 202 200 184 187 199 198 197 200 197 195 193 195 190 180 187 185 168 155 155 154 153 153 156 150 138 147 161 178 197 183
157 218 228 246 265 240 278 269 305 327 10 317 173 189 178 188 225 214 209 195 187 195 189 197 198 202 205 194 192 198 183 178 183 184 170 156 158 157 157 157 154 158 153 149 146 152 150 189 231